When you browse on this site, cookies collect data to enhance your experience and personalize the content and advertising you see.
Visit our Privacy Policy to learn more. By continuing to use the site, you agree to this use of cookies and data.
  • en France
  • Liste des pays
  • À 7 jours
  • Température de l'eau
  • Carte météo
  • Widgets météo
  • user-avatar
    Se connecter

    Météo par heure à Garoua

    Ce jour, 4 Avril, Samedi

    Heure Température Précipitation Vent Pression Humidité
    00:00 +34°C° 0 mm 3 m/s 738 mmHg 46%
    01:00 +32°C° 0 mm 2 m/s 738 mmHg 53%
    02:00 +31°C° 0 mm 2 m/s 738 mmHg 57%
    03:00 +31°C° 0 mm 2 m/s 738 mmHg 60%
    04:00 +30°C° 0 mm 2 m/s 738 mmHg 63%
    05:00 +30°C° 0 mm 2 m/s 738 mmHg 62%
    06:00 +31°C° 0 mm 3 m/s 739 mmHg 61%
    07:00 +31°C° 0 mm 3 m/s 740 mmHg 60%
    08:00 +34°C° 0 mm 3 m/s 740 mmHg 52%
    09:00 +37°C° 0 mm 3 m/s 740 mmHg 45%
    10:00 +39°C° 0 mm 3 m/s 740 mmHg 37%
    11:00 +43°C° 0 mm 3 m/s 739 mmHg 31%
    12:00 +45°C° 0 mm 3 m/s 739 mmHg 25%
    13:00 +47°C° 0 mm 2 m/s 738 mmHg 19%
    14:00 +48°C° 0 mm 2 m/s 737 mmHg 16%
    15:00 +48°C° 0 mm 2 m/s 736 mmHg 13%
    16:00 +49°C° 0 mm 2 m/s 735 mmHg 10%
    17:00 +46°C° 0 mm 2 m/s 736 mmHg 12%
    18:00 +42°C° 0 mm 1 m/s 736 mmHg 14%
    19:00 +40°C° 0 mm 1 m/s 737 mmHg 15%
    20:00 +38°C° 0 mm 2 m/s 737 mmHg 24%
    21:00 +37°C° 0 mm 2 m/s 738 mmHg 32%
    22:00 +35°C° 0 mm 3 m/s 739 mmHg 41%
    23:00 +34°C° 0 mm 2 m/s 739 mmHg 44%

    Demain, 5 Avril, Dimanche

    Heure Température Précipitation Vent Pression Humidité
    00:00 +34°C° 0 mm 2 m/s 739 mmHg 47%
    01:00 +32°C° 0 mm 2 m/s 739 mmHg 50%
    02:00 +32°C° 0 mm 2 m/s 739 mmHg 52%
    03:00 +31°C° 0 mm 2 m/s 739 mmHg 53%
    04:00 +31°C° 0 mm 2 m/s 739 mmHg 55%
    05:00 +31°C° 0 mm 2 m/s 740 mmHg 56%
    06:00 +31°C° 0 mm 3 m/s 740 mmHg 57%
    07:00 +33°C° 0 mm 3 m/s 741 mmHg 58%
    08:00 +34°C° 0 mm 3 m/s 741 mmHg 53%
    09:00 +36°C° 0 mm 3 m/s 741 mmHg 49%
    10:00 +37°C° 0 mm 3 m/s 741 mmHg 45%
    11:00 +40°C° 0 mm 3 m/s 740 mmHg 38%
    12:00 +43°C° 0 mm 3 m/s 740 mmHg 32%
    13:00 +45°C° 0 mm 3 m/s 739 mmHg 26%
    14:00 +45°C° 0 mm 3 m/s 738 mmHg 24%
    15:00 +45°C° 0 mm 4 m/s 737 mmHg 23%
    16:00 +45°C° 0 mm 4 m/s 736 mmHg 22%
    17:00 +43°C° 0.2 mm 3 m/s 737 mmHg 25%
    18:00 +40°C° 0.2 mm 3 m/s 737 mmHg 29%
    19:00 +38°C° 0.2 mm 2 m/s 738 mmHg 32%
    20:00 +37°C° 0.2 mm 2 m/s 739 mmHg 33%
    21:00 +37°C° 0.2 mm 2 m/s 739 mmHg 35%
    22:00 +36°C° 0.2 mm 2 m/s 740 mmHg 36%
    23:00 +35°C° 0 mm 2 m/s 740 mmHg 42%

    Après-demain, 6 Avril, Lundi

    Heure Température Précipitation Vent Pression Humidité
    00:00 +34°C° 0 mm 2 m/s 739 mmHg 48%
    01:00 +32°C° 0 mm 2 m/s 739 mmHg 53%
    02:00 +31°C° 0 mm 1 m/s 739 mmHg 56%
    03:00 +30°C° 0 mm 1 m/s 738 mmHg 58%
    04:00 +30°C° 0 mm 1 m/s 738 mmHg 60%
    05:00 +30°C° 0 mm 1 m/s 739 mmHg 59%
    06:00 +30°C° 0 mm 1 m/s 739 mmHg 57%
    07:00 +30°C° 0 mm 1 m/s 740 mmHg 56%
    08:00 +33°C° 0 mm 1 m/s 740 mmHg 48%
    09:00 +37°C° 0 mm 2 m/s 740 mmHg 40%
    10:00 +40°C° 0 mm 2 m/s 741 mmHg 32%
    11:00 +42°C° 0 mm 2 m/s 740 mmHg 28%
    12:00 +45°C° 0 mm 2 m/s 739 mmHg 23%
    13:00 +47°C° 0 mm 2 m/s 739 mmHg 19%
    14:00 +47°C° 0 mm 2 m/s 738 mmHg 18%
    15:00 +48°C° 0 mm 2 m/s 737 mmHg 16%
    16:00 +48°C° 0 mm 2 m/s 736 mmHg 15%
    17:00 +45°C° 0 mm 2 m/s 737 mmHg 19%
    18:00 +41°C° 0 mm 2 m/s 737 mmHg 23%
    19:00 +38°C° 0 mm 2 m/s 738 mmHg 27%
    20:00 +38°C° 0 mm 2 m/s 738 mmHg 29%
    21:00 +37°C° 0 mm 2 m/s 739 mmHg 31%
    22:00 +36°C° 0 mm 2 m/s 739 mmHg 34%
    23:00 +35°C° 0 mm 2 m/s 739 mmHg 37%

    7 Avril, Mardi

    Heure Température Précipitation Vent Pression Humidité
    00:00 +34°C° 0 mm 2 m/s 739 mmHg 40%
    01:00 +32°C° 0 mm 2 m/s 739 mmHg 43%
    02:00 +32°C° 0 mm 2 m/s 739 mmHg 47%
    03:00 +31°C° 0 mm 1 m/s 739 mmHg 51%
    04:00 +30°C° 0 mm 1 m/s 738 mmHg 55%
    05:00 +30°C° 0 mm 1 m/s 739 mmHg 55%
    06:00 +31°C° 0 mm 1 m/s 739 mmHg 55%
    07:00 +31°C° 0 mm 1 m/s 740 mmHg 54%
    08:00 +35°C° 0 mm 2 m/s 740 mmHg 48%
    09:00 +37°C° 0 mm 2 m/s 740 mmHg 41%
    10:00 +40°C° 0 mm 2 m/s 741 mmHg 34%
    11:00 +41°C° 0 mm 2 m/s 740 mmHg 30%
    12:00 +43°C° 0 mm 2 m/s 739 mmHg 26%
    13:00 +46°C° 0 mm 2 m/s 738 mmHg 22%
    14:00 +46°C° 0 mm 2 m/s 738 mmHg 21%
    15:00 +46°C° 0 mm 2 m/s 737 mmHg 20%
    16:00 +46°C° 0 mm 2 m/s 736 mmHg 19%
    17:00 +43°C° 0.2 mm 3 m/s 737 mmHg 24%
    18:00 +39°C° 0.2 mm 3 m/s 737 mmHg 29%
    19:00 +36°C° 0.2 mm 4 m/s 737 mmHg 34%
    20:00 +35°C° 0.1 mm 4 m/s 738 mmHg 38%
    21:00 +34°C° 0.1 mm 4 m/s 739 mmHg 42%
    22:00 +33°C° 0.1 mm 5 m/s 740 mmHg 45%
    23:00 +33°C° 0 mm 4 m/s 740 mmHg 49%

    8 Avril, Mercredi

    Heure Température Précipitation Vent Pression Humidité
    00:00 +31°C° 0 mm 3 m/s 739 mmHg 52%
    01:00 +31°C° 0 mm 3 m/s 739 mmHg 55%
    02:00 +30°C° 0 mm 3 m/s 739 mmHg 57%
    03:00 +30°C° 0 mm 3 m/s 739 mmHg 58%
    04:00 +29°C° 0 mm 2 m/s 739 mmHg 60%
    05:00 +29°C° 0 mm 2 m/s 739 mmHg 59%
    06:00 +29°C° 0 mm 1 m/s 739 mmHg 58%
    07:00 +27°C° 0 mm 0 m/s 740 mmHg 57%
    08:00 +32°C° 0 mm 1 m/s 740 mmHg 49%
    09:00 +36°C° 0 mm 2 m/s 740 mmHg 41%
    10:00 +39°C° 0 mm 3 m/s 740 mmHg 33%
    11:00 +40°C° 0 mm 3 m/s 740 mmHg 29%
    12:00 +43°C° 0 mm 4 m/s 739 mmHg 26%
    13:00 +44°C° 0 mm 4 m/s 738 mmHg 23%
    14:00 +45°C° 0 mm 4 m/s 737 mmHg 23%
    15:00 +45°C° 0 mm 4 m/s 737 mmHg 22%
    16:00 +45°C° 0 mm 4 m/s 736 mmHg 22%
    17:00 +43°C° 0 mm 4 m/s 736 mmHg 26%
    18:00 +42°C° 0 mm 4 m/s 737 mmHg 29%
    19:00 +40°C° 0 mm 4 m/s 737 mmHg 33%
    20:00 +38°C° 0 mm 4 m/s 738 mmHg 37%
    21:00 +36°C° 0 mm 3 m/s 738 mmHg 41%
    22:00 +35°C° 0 mm 3 m/s 739 mmHg 45%
    23:00 +34°C° 0 mm 3 m/s 739 mmHg 47%

    9 Avril, Jeudi

    Heure Température Précipitation Vent Pression Humidité
    00:00 +34°C° 0 mm 2 m/s 738 mmHg 50%
    01:00 +32°C° 0 mm 1 m/s 738 mmHg 52%
    02:00 +32°C° 0 mm 1 m/s 738 mmHg 54%
    03:00 +32°C° 0 mm 1 m/s 738 mmHg 55%
    04:00 +31°C° 0 mm 2 m/s 738 mmHg 56%
    05:00 +31°C° 0 mm 1 m/s 739 mmHg 56%
    06:00 +31°C° 0 mm 1 m/s 739 mmHg 56%
    07:00 +29°C° 0 mm 0 m/s 739 mmHg 55%
    08:00 +34°C° 0 mm 1 m/s 740 mmHg 48%
    09:00 +36°C° 0 mm 1 m/s 740 mmHg 41%
    10:00 +40°C° 0 mm 2 m/s 741 mmHg 34%
    11:00 +41°C° 0 mm 2 m/s 740 mmHg 30%
    12:00 +42°C° 0 mm 2 m/s 740 mmHg 26%
    13:00 +45°C° 0 mm 2 m/s 739 mmHg 22%
    14:00 +45°C° 0 mm 2 m/s 738 mmHg 21%
    15:00 +45°C° 0 mm 2 m/s 738 mmHg 21%
    16:00 +43°C° 0 mm 2 m/s 737 mmHg 20%
    17:00 +42°C° 0.1 mm 2 m/s 737 mmHg 24%
    18:00 +40°C° 0.1 mm 2 m/s 737 mmHg 27%
    19:00 +38°C° 0.1 mm 2 m/s 738 mmHg 31%
    20:00 +38°C° 0 mm 2 m/s 738 mmHg 34%
    21:00 +37°C° 0 mm 3 m/s 739 mmHg 37%
    22:00 +36°C° 0 mm 3 m/s 739 mmHg 40%
    23:00 +35°C° 0 mm 2 m/s 739 mmHg 43%
    Voir plus